weather.gov     
National Weather Service

Terminal Aerodrome Forecast
NWS Homepage
This page is being discontinued on March 12, 2014.
The same data is available at this site. Please update your bookmarks.
Thank you, and we apologize for the inconvenience.
Please send an email to SR-SRH.Webmaster@noaa.gov with any concerns.


Current Version
Previous Version:    01  02  03  04  05  06  07  08  09  10  11  12  13  14  
[Printable]
537
FTUS41 KGYX 231100
TAFCON
TAF
KCON 231120Z 2312/2412 VRB03KT 3SM BR SCT030 OVC080
     FM231400 32012KT P6SM VCSH SCT030 BKN045 OVC070
     FM231800 32018G28KT P6SM VCSH BKN050 BKN080
     FM240300 31015G21KT P6SM BKN050=


U.S. Dept. of Commerce
NOAA National Weather Service
1325 East West Highway
Silver Spring, MD 20910
E-mail: w-nws.webmaster@noaa.gov
Page last modified: May 16, 2007
NATIONAL WEATHER SERVICE: for Safety, for Work, for Fun - FOR LIFE